Home > Weather > Gothenburg > Past weeks

Flag for Sweden Past Weather in Gothenburg, Sweden — Yesterday and Last 2 Weeks

Now
55 °F

Passing clouds.


Feels Like: 55 °F
Forecast: 57 / 62 °F
Wind: 5 mph from Southeast

Location: Gothenburg / Save

Current Time: Jun 30, 2016 at 1:49:37 AM

Latest Report: Jun 30, 2016 at 1:20 AM


Visibility: N/A

Pressure: 29.74 "Hg

Humidity: 94%

Dew Point: 54 °F

Location of GothenburgLocation

Past Weather in Gothenburg — Graph

°F

Gothenburg Temperature Yesterday

Maximum temperature yesterday: 66 °F (at 11:50 AM)
Minimum temperature yesterday: 48 °F (at 1:50 AM)
Average temperature yesterday: 59 °F

High & Low Weather Summary for the Past Weeks

 TemperatureHumidityPressure
High75 °F (Jun 24, 1:20 PM)100% (Jun 17, 4:50 AM)30.21 "Hg (Jun 17, 4:50 AM)
Low48 °F (Jun 22, 4:20 AM)52% (Jun 29, 11:50 AM)29.53 "Hg (Jun 15, 4:20 AM)
Average61 °F81%29.85 "Hg
* Reported Jun 15 12:20 AM — Jun 30 12:20 AM, Gothenburg, Weather by CustomWeather, © 2016

Note: Actual official high and low records may vary slightly from our data, if they occured in-between our weather recording intervals... More about our weather records

Advertising

Gothenburg Weather History for the Previous 24 Hours

Scroll right to see more
 ConditionsComfort  
Time TempWeatherWind HumidityBarometerVisibility
12:20 AM
Thu, Jun 30
57 °FPassing clouds.7 mph88%29.77 "HgN/A
11:50 PM
Wed, Jun 29
57 °FPartly cloudy.9 mph94%29.77 "HgN/A
11:20 PM57 °FPartly cloudy.8 mph94%29.77 "HgN/A
10:50 PM57 °FLight rain. Mostly cloudy.9 mph94%29.77 "HgN/A
10:20 PM57 °FDrizzle. Mostly cloudy.9 mph94%29.77 "HgN/A
9:50 PM59 °FPartly sunny.9 mph82%29.74 "HgN/A
9:20 PM57 °FPartly sunny.8 mph88%29.74 "HgN/A
8:50 PM57 °FDrizzle. Mostly cloudy.7 mph94%29.74 "Hg4 mi
8:20 PM57 °FDrizzle. Partly sunny.9 mph88%29.77 "Hg6 mi
7:50 PM59 °FBroken clouds.9 mph88%29.74 "HgN/A
7:20 PM61 °FDrizzle. Mostly cloudy.6 mph77%29.77 "HgN/A
6:50 PM61 °FBroken clouds.10 mph77%29.77 "HgN/A
6:20 PM61 °FPassing clouds.8 mph83%29.77 "HgN/A
5:50 PM61 °FPassing clouds.5 mph83%29.77 "HgN/A
5:20 PM61 °FScattered clouds.6 mph83%29.77 "HgN/A
4:50 PM61 °FLight rain. Passing clouds.10 mph77%29.77 "HgN/A
4:20 PM61 °FScattered clouds.8 mph83%29.80 "HgN/A
3:50 PM61 °FLight rain. Scattered clouds.6 mph83%29.80 "HgN/A
3:20 PM59 °FLight rain. Partly sunny.7 mph88%29.80 "HgN/A
2:50 PM61 °FLight rain. Partly sunny.8 mph83%29.80 "HgN/A
2:20 PM64 °FScattered showers. Broken clouds.7 mph64%29.80 "HgN/A
1:50 PM64 °FMore clouds than sun.9 mph60%29.80 "HgN/A
1:20 PM64 °FMore clouds than sun.8 mph56%29.80 "HgN/A
12:50 PM66 °FBroken clouds.7 mph52%29.80 "HgN/A
12:20 PM66 °FScattered clouds.7 mph52%29.80 "HgN/A
11:50 AM66 °FPassing clouds.9 mph52%29.80 "HgN/A
11:20 AM64 °FSunny.12 mph56%29.83 "Hg10 mi
10:20 AM64 °FPassing clouds.9 mph56%29.83 "HgN/A
9:50 AM64 °FSunny.12 mph56%29.83 "Hg10 mi
9:20 AM63 °FSunny.10 mph64%29.83 "Hg10 mi
8:50 AM63 °FSunny.9 mph68%29.86 "Hg10 mi
8:20 AM63 °FPassing clouds.7 mph68%29.86 "HgN/A
7:50 AM61 °FSunny.7 mph72%29.86 "Hg10 mi
7:20 AM59 °FSunny.7 mph77%29.86 "Hg10 mi
6:50 AM57 °FSunny.7 mph77%29.86 "Hg10 mi
6:20 AM55 °FCool.7 mph82%29.86 "HgN/A
5:50 AM54 °FCool.6 mph88%29.86 "HgN/A
5:20 AM52 °FPartly sunny.1 mph94%29.89 "HgN/A
4:50 AM52 °FPassing clouds.3 mph88%29.89 "HgN/A
4:20 AM52 °FPassing clouds.No wind88%29.89 "HgN/A
3:50 AM54 °FPassing clouds.5 mph88%29.89 "HgN/A
3:20 AM54 °FPassing clouds.5 mph88%29.89 "HgN/A
2:50 AM50 °FPassing clouds.3 mph94%29.92 "HgN/A
2:20 AM48 °FCool.3 mph94%29.92 "HgN/A
1:50 AM48 °FCool.No wind94%29.92 "Hg2 mi
1:20 AM50 °FCool.No wind94%29.92 "Hg1 mi
Weather by CustomWeather, © 2016

See weather overviewHow to use our weather pages